www.pogodaiklimat.ru
ПОГОДА в Гаймоне
Время
и дата
22:53 04.02
23:53 04.02
00:53 05.02
01:53 05.02
02:53 05.02
03:53 05.02
04:53 05.02
05:53 05.02
06:53 05.02
07:53 05.02
08:53 05.02
09:53 05.02
10:53 05.02
11:53 05.02
12:53 05.02
13:53 05.02
14:53 05.02
15:53 05.02
16:53 05.02
17:53 05.02
18:53 05.02
19:53 05.02
20:53 05.02
21:53 05.02
22:53 05.02
23:53 05.02
00:53 06.02
01:53 06.02
02:53 06.02
03:53 06.02
04:53 06.02
05:53 06.02
06:53 06.02
07:53 06.02
08:53 06.02
09:53 06.02
11:53 06.02
12:53 06.02
13:53 06.02
14:00 06.02
14:53 06.02
15:53 06.02
16:53 06.02
17:53 06.02
18:53 06.02
19:53 06.02
20:53 06.02
21:53 06.02
Ветер
(напр.,м/с)
Видим. Явления Облачность Т
(С)
Тd
(С)
f
(%)
Тe
(С)
Тes
(С)
Комфортность P
(гПа)
Po
(гПа)
Тmin
(С)
Tmax
(С)
R
(мм)
R24
(мм)
S
(см)
штиль 0 н/о ясно +5.0 -9.4 34 +5 +5 1019.7 910.4
штиль 0 н/о ясно +1.7 -8.3 47 +1 +1 1020.0 911.0 +13.9
штиль 0 н/о ясно 0.0 -8.3 54 -1 -1 1020.1 910.7
З 3 н/о ясно -2.2 -9.4 58 -7 -7 1019.7 910.4
З 2 н/о ясно -1.1 -9.4 53 -4 -4 1019.5 910.4
штиль 0 н/о ясно -2.2 -10.0 55 -3 -3 1019.9 910.4
штиль 0 н/о ясно -2.2 -10.0 55 -3 -3 1019.7 910.1
штиль 0 н/о ясно -4.4 -11.7 57 -5 -5 1020.1 910.1 -4.4 +1.7
штиль 0 н/о ясно -4.4 -11.7 57 -5 -5 1020.5 909.8
штиль 0 н/о ясно -5.0 -12.2 57 -5 -5 1021.0 910.1
штиль 0 н/о ясно -1.1 -10.0 51 -2 -1 1021.2 910.7
З 2 н/о ясно +3.9 -8.9 39 +2 +3 1020.6 910.4
В 2 н/о ясно +8.3 -8.3 30 +7 +11 1019.6 910.1
ЮВ 4 н/о ясно +10.6 -6.1 30 +9 +13 1018.9 909.2 -6.1 +11.1
ЮВ 6 н/о ясно +12.8 -6.1 26 +11 +14 1017.6 908.3
Ю 6 н/о ясно +15.0 -6.7 22 +14 +17 1016.2 907.1
Ю 6
{10}
н/о ясно +16.1 -7.2 19 +15 +18 1014.6 905.9
Ю 7
{10}
н/о ясно +16.7 -7.2 19 +16 +17 1013.9 905.3
ЮВ 7 н/о ясно +16.7 -6.1 20 +16 +16 1013.1 904.4
В 4 н/о ясно +14.4 -6.1 24 +13 +14 1013.2 904.1 +10.6 +16.7
ЮВ 4 н/о ясно +10.6 -6.7 29 +9 +9 1013.6 904.1
ЮВ 4 н/о ясно +8.3 -6.1 35 +6 +6 1013.9 904.1
ЮВ 6
{11}
н/о ясно +8.9 -3.3 42 +6 +6 1012.6 903.2
Ю 5 н/о ясно +6.1 -3.3 51 +2 +2 1011.4 902.6
Ю 4 н/о ясно +3.9 -2.8 62 0 0 1010.4 902.0
Ю 4 н/о ясно +4.4 -0.6 70 0 0 1009.2 901.1 +3.3 +14.4
ЮЗ 3 н/о ясно +3.9 -1.1 70 0 0 1008.4 900.5
ЮЗ 2 н/о ясно +1.7 -2.8 72 -1 -1 1007.3 899.6
Ю 4 н/о ясно +1.1 -4.4 67 -4 -4 1006.3 899.0
Ю 5 н/о ясно +1.1 -6.1 59 -4 -4 1005.2 897.7
Ю 5 н/о ясно +4.4 -6.7 44 0 0 1004.4 897.4
ЮЗ 7 н/о ясно +7.8 -6.7 35 +4 +4 1004.1 897.4 +7.8
З 5 н/о ясно +4.4 -7.2 43 0 0 1005.4 897.7
СЗ 2 н/о ясно +2.8 -7.8 46 +1 +1 1006.4 898.4
З 5 н/о ясно +7.2 -7.8 34 +4 +4 1005.6 898.1
З 11
{15}
н/о ясно +13.3 -9.4 20 +11 +11 1005.4 898.4
СЗ 8
{17}
н/о ясно +17.8 -10.0 14 +17 +18 1006.0 899.0 +0.6 +18.3
СЗ 8
{14}
н/о ясно +18.3 -10.0 14 +17 +19 1005.7 898.7
С 12
{16}
н/о ясно +17.8 -6.1 19 +16 +16 1005.7 898.7
С 12
{16}
н/о ясно +17.2 -6.1 20 +16 +16 898.7
С 12
{17}
н/о ясно +15.6 -6.1 22 +13 +13 1006.7 899.3
С 13
{18}
н/о ясно +13.3 -5.6 26 +10 +10 1007.9 899.9
С 11
{15}
н/о ясно +12.2 -6.7 26 +9 +9 1009.3 901.4
С 9
{14}
н/о ясно +10.0 -8.3 27 +7 +7 1011.4 903.2 +10.0 +18.9
С 7 н/о ясно +7.2 -6.7 36 +3 +3 1013.8 904.7
С 6 н/о ясно +5.6 -5.6 44 +1 +1 1015.1 905.6
С 8
{12}
н/о ясно +5.0 -4.4 51 0 0 1015.6 906.5
С 7
{10}
н/о ясно +3.3 -3.3 62 -2 -2 1016.3 907.4
Местоположение метеостанции Guymon Municipal Airport: широта 36.6817 долгота -101.5053 высота над уровнем моря 952 м.
В архиве по умолчанию представлена погода в Гаймоне за последние 1-2 суток. Обновление информации о фактической погоде в базе происходит ежечасно! Архивные данные за месяц целиком и за предыдущие месяцы Вы можете получить, выбрав интересующий диапазон дат из раскрывающегося списка и нажав кнопку "Ввод!".
Внимание! Архив погоды МЕТАР в базе сайта по станциям, не включенным в климатический монитор, хранится не более 60 дней. Нет смысла пытаться выбрать более раннюю дату.
*Определитесь, кто Вы:
Внимание! Время в таблицах - местное (без учета летнего времени). Для получения всемирного времени необходимо вычесть поправку, которая равна -6 ч.
Смотрите также архив погоды в соседних городах и на ближайших метеорологических станциях:
Партнеры нашего сайта:      
Пояснения к столбцам:
  • Ветер - указаны скорость ветра в м/с - средняя за 10 мин, порывы в срок и между сроками (в фигурных скобках) и направление, откуда дует ветер: С - северный,
  • СВ - северо-восточный, В - восточный, ЮВ - юго-восточный, Ю - южный, ЮЗ - юго-западный, З - западный, СЗ - северо-западный.
  • Видимость - горизонтальная дальность видимости в метрах или километрах. При видимости от 1 до 10 км при отсутствии осадков обычно наблюдается дымка, при ухудшении видимости до 1 км и менее - туман. В сухую погоду видимость может ухудшаться дымом, пылью или мглою.
  • Явления - указаны атмосферные явления, наблюдавшиеся в срок или в последний час перед сроком; фигурными скобками обозначены явления, наблюдавшиеся между сроками (за 1-3 часа до срока); квадратными скобками обозначены град или гололедные отложения с указанием их диаметра в мм.
  • Облачность - указаны через наклонную черту общая и нижняя облачность в баллах и высота нижней границы облаков в метрах; квадратными скобками обозначены формы облаков: Ci - перистые, Cs - перисто-слоистые, Cc - перисто-кучевые, Ac - высококучевые, As - высокослоистые, Sc - слоисто-кучевые, Ns - слоисто-дождевые, Cu - кучевые, Cb - кучево-дождевые. Подробнее классификацию облаков см. в Атласе облаков (PDF).
  • T - Температура воздуха - температура, измеренная на высоте 2 м над землей.
  • Td - Температура точки росы - температура, при понижении до которой содержащийся в воздухе водяной пар достигнет насыщения.
  • f - Относительная влажность воздуха - влажноcть воздуха, измеренная на высоте 2 м над землей.
  • Te - Эффективная температура - температура, которую ощущает одетый по сезону человек в тени. Характеристика душности погоды. При расчете учитывается влияние влажности воздуха и скорости ветра на теплоощущения человека.
  • Tes - Эффективная температура на солнце - температура, которую ощущает человек, с поправкой на солнечный нагрев. Характеристика знойности погоды. Зависит от высоты солнца над горизонтом, облачности и скорости ветра. Ночью, в пасмурную погоду, а также при ветре 12 м/с и более поправка равна нулю.
  • P - Атмосферное давление - приведенное к уровню моря атмосферное давление.
  • Po - Атмосферное давление - измеренное на уровне метеостанции атмосферное давление.
  • Tmin - Минимальная температура - минимум температуры воздуха на высоте 2 м над землей.
  • Tmax - Максимальная температура - максимум температуры воздуха на высоте 2 м над землей.
  • R - Количество осадков - Количество выпавших осадков за период времени, мм. При наведении курсора мыши на число - период времени, за который выпало указанное количество осадков.
  • R24 - Количество осадков - Количество выпавших осадков за 24 часа, мм.
  • S - Снежный покров - Высота снежного покрова, см. При наведении курсора мыши на число - состояние снежного покрова и степень покрытия местности в баллах.